Calgary Springbank,

7:26 AM MDT on July 27, 2017 (GMT -0600)
Calgary Springbank

Weather History for CYBW - January, 2014

Change the Weather History Date:

Saturday, January 25, 2014

  Actual Average Record
Temperature  
Mean Temperature 38 °F -  
Max Temperature 49 °F 28 °F 59 °F (2015)
Min Temperature 26 °F 8 °F -43 °F (1997)
Degree Days  
Heating Degree Days 28    
Moisture  
Dew Point 26 °F    
Average Humidity 64    
Maximum Humidity 75    
Minimum Humidity 44    
Precipitation  
Precipitation 0.00 in - - ()
Sea Level Pressure  
Sea Level Pressure 30.13 in    
Wind  
Wind Speed 10 mph ()    
Max Wind Speed 17 mph    
Max Gust Speed -    
Visibility 15.0 miles    
Events      
Averages and records for this station are not official NWS values.
T = Trace of Precipitation, MM = Missing Value Source: Averaged Metar Reports

Daily Weather History Graph

Daily Weather History Graph

Search for Another Location

Airport or City:

Trip Planner

Search our weather history database for the weather conditions in past years. The results will help you decide how hot, cold, wet, or windy it might be!

Date:

Astronomy

Jan. 25, 2014 Rise Set
Actual Time 8:23 AM MST 5:16 PM MST
Civil Twilight 7:47 AM MST 5:53 PM MST
Nautical Twilight 7:06 AM MST 6:33 PM MST
Astronomical Twilight 6:27 AM MST 7:12 PM MST
Moon 2:58 AM MST (1/25) 12:20 PM MST (1/25)
Length of Visible Light 10h 05m
Length of Day
8h 52m
Waning Crescent, 33% of the Moon is Illuminated
Jan 25
Waning Crescent
Jan 30
New
Feb 6
First Quarter
Feb 14
Full
Feb 22
Last Quarter

Hourly Weather History & Observations

Time (MST) Temp. Windchill Dew Point Humidity Pressure Visibility Wind Dir Wind Speed Gust Speed Precip Events Conditions
5:00 AM 31 °F - 23 °F 62% 30.15 in 15 mi NNW 16.1 mph - -  
5:00 AM 30.2 °F 18.9 °F 23.0 °F 75% 30.15 in 15.0 mi NNW 16.1 mph - N/A   Clear
6:00 AM 30.2 °F 20.8 °F 23.0 °F 75% 30.13 in 15.0 mi NNW 11.5 mph - N/A   Clear
7:00 AM 30.2 °F 19.8 °F 21.2 °F 69% 30.10 in 15.0 mi North 13.8 mph - N/A   Clear
8:00 AM 30.2 °F 20.2 °F 21.2 °F 69% 30.09 in 30.0 mi NNW 12.7 mph - N/A   Partly Cloudy
9:00 AM 30.2 °F 21.3 °F 21.2 °F 69% 30.09 in 30.0 mi NNW 10.4 mph - N/A   Partly Cloudy
10:00 AM 35.6 °F 26.2 °F 23.0 °F 60% 30.09 in 30.0 mi NNW 15.0 mph - N/A   Partly Cloudy
11:00 AM 40 °F - 26 °F 44% 30.11 in 28 mi NNW 13.8 mph - -   Scattered Clouds
11:00 AM 39.2 °F 30.8 °F 26.6 °F 61% 30.10 in 30.0 mi NNW 15.0 mph - N/A   Partly Cloudy
12:00 PM 42.8 °F 36.2 °F 26.6 °F 53% 30.11 in 30.0 mi NNW 12.7 mph - N/A   Partly Cloudy
1:00 PM 44.6 °F 40.2 °F 26.6 °F 49% 30.11 in 30.0 mi NNW 8.1 mph - N/A   Partly Cloudy
2:00 PM 48.2 °F - 28.4 °F 46% 30.12 in 30.0 mi NW 4.6 mph - N/A   Partly Cloudy
3:00 PM 44.6 °F 37.2 °F 28.4 °F 53% 30.15 in 30.0 mi NNE 17.3 mph - N/A   Partly Cloudy
4:00 PM 41.0 °F 35.8 °F 28.4 °F 61% 30.17 in 30.0 mi NNW 8.1 mph - N/A   Scattered Clouds
5:00 PM 38 °F - 29 °F 61% 30.17 in 28 mi NNW 8.1 mph - -   Scattered Clouds
5:00 PM 39.2 °F 33.0 °F 30.2 °F 70% 30.17 in 30.0 mi NNW 9.2 mph - N/A   Mostly Cloudy
6:00 PM 37.4 °F 30.3 °F 28.4 °F 70% 30.17 in 15.0 mi NW 10.4 mph - N/A   Mostly Cloudy
6:12 PM 35.6 °F 29.9 °F 28.4 °F 75% 30.03 in 15.0 mi NW 6.9 mph - N/A   Mostly Cloudy
7:00 PM 35.6 °F - 26.6 °F 70% 30.18 in 15.0 mi Calm Calm - N/A   Mostly Cloudy
8:00 PM 33.8 °F 27.7 °F 24.8 °F 70% 30.19 in 15.0 mi WNW 6.9 mph - N/A   Mostly Cloudy
9:00 PM 32.0 °F - 24.8 °F 75% 30.19 in 15.0 mi Variable 2.3 mph - N/A   Scattered Clouds
10:00 PM 32.0 °F 27.5 °F 24.8 °F 75% 30.03 in 15.0 mi North 4.6 mph - N/A   Overcast